Location: *
(51.1248°S, 108.4023°W)
Time: 02:39:48
(UTC+00:00)

Cosmos 2297 Rocket - Visible Passes

Search period start: 23 October 2021 00:00
Search period end: 02 November 2021 00:00
Orbit: 841 x 842 km, 71.0° (Epoch: 22 October)

Date Brightness Start Highest point End Pass type
(mag) Time Alt. Az. Time Alt. Az. Time Alt. Az.
23 Oct 2.4 02:27:32 10° NNW 02:33:15 82° WSW 02:39:02 10° SSE visible
23 Oct 4.8 04:13:46 10° W 04:18:13 23° SW 04:22:41 10° SSE visible
23 Oct 5.6 06:03:22 10° SSW 06:04:38 11° S 06:05:53 10° S visible
23 Oct 5.5 07:49:14 10° S 07:51:34 12° SSE 07:53:54 10° SE visible
23 Oct 4.2 09:32:33 10° SSW 09:37:37 31° SE 09:42:38 10° ENE visible
23 Oct 2.2 11:16:26 10° SW 11:22:07 65° WNW 11:27:45 10° NNE visible
24 Oct 4.8 03:58:30 10° W 04:03:01 23° SW 04:07:34 10° SSE visible
24 Oct 5.5 05:48:02 10° SSW 05:49:24 11° S 05:50:47 10° S visible
24 Oct 5.4 07:34:06 10° S 07:36:20 12° SSE 07:38:34 10° SE visible
24 Oct 4.2 09:17:25 10° SSW 09:22:26 30° SE 09:27:25 10° ENE visible
24 Oct 2.2 11:01:16 10° SSW 11:06:59 68° WNW 11:12:37 10° NNE visible
25 Oct 4.8 03:43:15 10° W 03:47:50 24° SW 03:52:26 10° SSE visible
25 Oct 5.5 05:32:42 10° SSW 05:34:10 11° SSW 05:35:39 10° S visible
25 Oct 5.4 07:18:59 10° S 07:21:07 12° SSE 07:23:15 10° SE visible
25 Oct 4.3 09:02:17 10° SSW 09:07:15 29° SE 09:12:10 10° ENE visible
25 Oct 2.2 10:46:07 10° SSW 10:51:50 71° WNW 10:57:30 10° NNE visible
26 Oct 4.7 03:28:00 10° W 03:32:38 25° SW 03:37:18 10° SSE visible
26 Oct 5.5 05:17:22 10° SSW 05:18:57 11° SSW 05:20:33 10° S visible
26 Oct 5.4 07:03:51 10° S 07:05:54 12° SSE 07:07:55 10° SE visible
26 Oct 4.3 08:47:09 10° SSW 08:52:03 28° SE 08:56:56 10° E visible
26 Oct 2.2 10:30:57 10° SSW 10:36:42 75° WNW 10:42:22 10° NNE visible
27 Oct 4.7 03:12:45 10° W 03:17:26 25° SW 03:22:10 10° SSE visible
27 Oct 5.4 05:02:02 10° SSW 05:03:43 11° SSW 05:05:26 10° S visible
27 Oct 5.3 06:48:44 10° S 06:50:40 12° SSE 06:52:36 10° SE visible
27 Oct 4.3 08:32:01 10° SSW 08:36:53 27° SE 08:41:42 10° E visible
27 Oct 2.2 10:15:48 10° SSW 10:21:33 78° WNW 10:27:14 10° NNE visible
28 Oct 4.7 02:57:31 10° W 03:02:15 26° SW 03:07:02 10° SSE visible
28 Oct 5.4 04:46:42 10° SSW 04:48:30 11° SSW 04:50:18 10° S visible
28 Oct 5.3 06:33:37 10° S 06:35:27 11° SSE 06:37:17 10° SSE visible
28 Oct 4.3 08:16:53 10° SSW 08:21:41 26° SE 08:26:27 10° E visible
28 Oct 2.2 10:00:39 10° SSW 10:06:25 81° WNW 10:12:07 10° NNE visible
29 Oct 4.7 02:42:15 10° W 02:47:04 27° SW 02:51:54 10° SSE visible
29 Oct 5.3 04:31:22 10° SW 04:33:17 12° SSW 04:35:11 10° S visible
29 Oct 5.3 06:18:30 10° S 06:20:14 11° SSE 06:21:57 10° SSE visible
29 Oct 4.4 08:01:45 10° SSW 08:06:30 26° SE 08:11:12 10° E visible
29 Oct 2.2 09:45:30 10° SSW 09:51:16 84° WNW 09:56:59 10° NNE visible
30 Oct 5.3 04:16:03 10° SW 04:18:03 12° SSW 04:20:04 10° S visible
30 Oct 5.3 06:03:23 10° S 06:05:00 11° SSE 06:06:37 10° SSE visible
30 Oct 4.4 07:46:37 10° SSW 07:51:19 25° SE 07:55:58 10° E visible
30 Oct 2.2 09:30:21 10° SSW 09:36:07 88° WNW 09:41:50 10° NNE visible
31 Oct 5.2 04:00:43 10° SW 04:02:50 12° SSW 04:04:57 10° S visible
31 Oct 5.2 05:48:16 10° S 05:49:47 11° SSE 05:51:17 10° SSE visible
31 Oct 4.4 07:31:31 10° SSW 07:36:07 24° SE 07:40:43 10° E visible
31 Oct 2.2 09:15:12 10° SSW 09:20:59 89° ESE 09:26:42 10° NNE visible
31 Oct 3.6 11:00:32 10° WSW 11:04:15 18° W 11:07:58 10° NW visible
01 Nov 5.2 03:45:24 10° SW 03:47:37 12° SSW 03:49:50 10° S visible
01 Nov 5.2 05:33:10 10° S 05:34:34 11° S 05:35:57 10° SSE visible
01 Nov 4.4 07:16:22 10° SSW 07:20:56 23° SE 07:25:27 10° E visible
01 Nov 2.2 09:00:04 10° SSW 09:05:50 86° ESE 09:11:33 10° NNE visible
01 Nov 3.5 10:45:17 10° WSW 10:49:09 19° W 10:53:00 10° NW visible
